Miscellaneous Local Product
Issued by NWS Hastings, NE

Home | Current Version | Previous Version | Graphics & Text | Print | Product List | Glossary On
Versions: 1 2 3 4 5 6 7 8 9 10 11 12 13 14 15 16 17 18 19 20 21 22 23 24 25 26 27 28 29 30 31 32 33 34 35 36 37 38 39 40 41 42 43 44 45 46 47 48 49 50
000
AXUS43 KGID 240102
MISGRI

GID CWA HOURLY WEATHER ROUNDUP
NATIONAL WEATHER SERVICE HASTINGS NE
700 PM CST THU NOV 23 2017

NOTE: "FAIR" INDICATES FEW OR NO CLOUDS BELOW 12,000 FEET WITH NO
SIGNIFICANT WEATHER AND/OR OBSTRUCTIONS TO VISIBILITY.

...SOUTH CENTRAL NEBRASKA...

CITY           SKY/WX    TMP DP  RH WIND       PRES   REMARKS
GRAND ISLAND   CLOUDY    59  41  51 S10       29.83F
KEARNEY        MOCLDY    58  41  53 S12       29.84F
HASTINGS       PTCLDY    58  39  49 S7        29.84F
ORD            CLOUDY    53  41  63 SW6       29.78F
YORK           PTCLDY    57  39  51 S9        29.84F
AURORA         CLOUDY    57  39  51 SW8       29.83F
LEXINGTON      CLEAR     57  42  56 S10       29.83F
HOLDREGE       CLOUDY    54  41  62 S7        29.85F
HEBRON         CLOUDY    58  40  51 S9        29.85F

...NEBRASKA PANHANDLE...

CITY           SKY/WX    TMP DP  RH WIND       PRES   REMARKS
CHADRON        CLOUDY    55  35  47 W10       29.78F
ALLIANCE       CLEAR     46  35  65 W8        29.84F
SCOTTSBLUFF    CLEAR     49  34  56 N3        29.88R
SIDNEY         CLOUDY    51  31  46 NW12      29.92R

...WESTERN AND NORTH CENTRAL NEBRASKA...

CITY           SKY/WX    TMP DP  RH WIND       PRES   REMARKS
VALENTINE      PTCLDY    54  38  54 SW10      29.73F
AINSWORTH      CLEAR     57  40  52 SW8       29.75F
ONEILL         CLOUDY    60  43  54 SW8       29.75F
BROKEN BOW     PTCLDY    55  41  59 SW6       29.81F
IMPERIAL       CLOUDY    55  34  45 SW8       29.87F
NORTH PLATTE   PTCLDY    49  38  65 E3        29.83F
MCCOOK         CLOUDY    60  40  47 SW5       29.86F

...EASTERN NEBRASKA...

CITY           SKY/WX    TMP DP  RH WIND       PRES   REMARKS
NORFOLK        CLOUDY    59  41  51 S14       29.76F
SO SIOUX CITY  CLOUDY    50  38  63 SE8       29.77F
TEKAMAH        MOCLDY    45  32  60 S6        29.81F
COLUMBUS       CLOUDY    61  41  47 S10       29.80F
ALBION         CLOUDY    60  42  51 CALM      29.79F
OMAHA EPPLEY   CLOUDY    49  37  63 SE9       29.84F
OFFUTT AFB     CLOUDY    49  36  62 SE5       29.84F
MILLARD        CLOUDY    54  39  57 SE5       29.84S
LINCOLN        CLOUDY    52  40  63 S8        29.85F
NEBRASKA CITY  CLEAR     52  39  60 S9        29.87F
BEATRICE       CLOUDY    58  40  52 S9        29.86F
FALLS CITY     CLEAR     55  38  52 S7        29.89S

...NORTHERN KANSAS...

CITY           SKY/WX    TMP DP  RH WIND       PRES   REMARKS
GOODLAND       CLOUDY    60  37  42 SW12      29.93F
HILL CITY      CLOUDY    57  40  52 SW7       29.89F
NORTON         CLEAR     55  36  47 SW6       29.86F
PHILLIPSBURG   CLEAR     57  39  51 S6        29.87F
SMITH CENTER   CLEAR     54  39  58 S10       29.87F
HAYS           CLOUDY    57  40  52 S8        29.90F
RUSSELL        CLEAR     54  41  61 S10       29.89F
CONCORDIA      CLOUDY    60  40  47 S14       29.87F
SALINA         CLEAR     54  40  59 S8        29.91F
TOPEKA         CLEAR     52  37  56 SE3       29.91F



USA.gov is the U.S. government's official web portal to all federal, state and local government web resources and services.